class="custom-background group-blog header-image full-width wpb-js-composer js-comp-ver-5.2.1 vc_responsive"
  • Currently

    Reported at York, York Municipal Airport, NE
    3:35 PM CST WED OCT 18 2017
  • 75°F24°C
  • Clear
    Clear
  • Feels Like:75°F24°CDew Point:41°F5°CHumidity:29% Winds:NNW 7 mph 11 kph Pressure:29.94 in1014 hPaVisibility:10.00 miles16090.00 meters
Time Weather Temp Dew Point
Humidity Winds Visibility Pressure Precipitation
1 hr 24 hr
Wednesday, October 18
16:35 16:35 Sunny Sunny 75°F24°C 41°F5°C 29% NNW 7 mphNNW 11 kph 10.0 miles16.1 km 29.94 in1014 hPa 0.00 in0.00 mm --
16:15 16:15 Sunny Sunny 75°F24°C 41°F5°C 29% NNE 5 mphNNE 7 kph 10.0 miles16.1 km 29.94 in1014 hPa 0.00 in0.00 mm --
15:55 15:55 Sunny Sunny 75°F24°C 41°F5°C 29% NW 7 mphNW 11 kph 10.0 miles16.1 km 29.94 in1014 hPa 0.00 in0.00 mm --
15:35 15:35 Sunny Sunny 75°F24°C 39°F4°C 27% N 3 mphN 6 kph 10.0 miles16.1 km 29.94 in1014 hPa 0.00 in0.00 mm --
15:15 15:15 Sunny Sunny 75°F24°C 41°F5°C 29% CalmCalm 10.0 miles16.1 km 29.94 in1014 hPa 0.00 in0.00 mm --
14:55 14:55 Sunny Sunny 75°F24°C 41°F5°C 29% N 7 mphN 11 kph 10.0 miles16.1 km 29.94 in1014 hPa 0.00 in0.00 mm --
14:35 14:35 Sunny Sunny 75°F24°C 43°F6°C 31% N 6 mphN 9 kph 10.0 miles16.1 km 29.94 in1014 hPa 0.00 in0.00 mm --
14:15 14:15 Sunny Sunny 73°F23°C 43°F6°C 33% CalmCalm 10.0 miles16.1 km 29.94 in1014 hPa 0.00 in0.00 mm --
13:55 13:55 Sunny Sunny 73°F23°C 45°F7°C 36% NW 3 mphNW 6 kph 10.0 miles16.1 km 29.94 in1014 hPa 0.00 in0.00 mm --
13:35 13:35 Sunny Sunny 73°F23°C 45°F7°C 36% WNW 8 mphWNW 13 kph 10.0 miles16.1 km 29.94 in1014 hPa 0.00 in0.00 mm --
13:15 13:15 Sunny Sunny 72°F22°C 46°F8°C 41% W 5 mphW 7 kph 10.0 miles16.1 km 29.94 in1014 hPa 0.00 in0.00 mm --
12:55 12:55 Sunny Sunny 72°F22°C 46°F8°C 41% WSW 7 mphWSW 11 kph 10.0 miles16.1 km 29.94 in1014 hPa 0.00 in0.00 mm --
12:35 12:35 Sunny Sunny 70°F21°C 46°F8°C 43% W 9 mphW 15 kph 10.0 miles16.1 km 29.94 in1014 hPa 0.00 in0.00 mm --
12:15 12:15 Sunny Sunny 68°F20°C 46°F8°C 46% SSW 8 mphSSW 13 kph 10.0 miles16.1 km 29.94 in1014 hPa 0.00 in0.00 mm --
11:55 11:55 Sunny Sunny 66°F19°C 48°F9°C 52% SSW 10 mphSSW 17 kph 10.0 miles16.1 km 29.91 in1013 hPa 0.00 in0.00 mm --
11:35 11:35 Sunny Sunny 64°F18°C 48°F9°C 56% S 12 mphS 19 kph 10.0 miles16.1 km 29.91 in1013 hPa 0.00 in0.00 mm --
11:15 11:15 Sunny Sunny 63°F17°C 46°F8°C 56% SSW 13 mphSSW 20 kph 10.0 miles16.1 km 29.91 in1013 hPa 0.00 in0.00 mm --
10:55 10:55 Sunny Sunny 61°F16°C 46°F8°C 59% SW 14 mphSW 22 kph 10.0 miles16.1 km 29.94 in1014 hPa 0.00 in0.00 mm --
10:35 10:35 Sunny Sunny 57°F14°C 46°F8°C 67% SSW 12 mphSSW 19 kph 10.0 miles16.1 km 29.94 in1014 hPa 0.00 in0.00 mm --
10:15 10:15 Sunny Sunny 57°F14°C 46°F8°C 67% SSW 15 mphSSW 24 kph 10.0 miles16.1 km 29.91 in1013 hPa 0.00 in0.00 mm --
09:55 09:55 Sunny Sunny 55°F13°C 46°F8°C 72% S 16 mphS 26 kph 10.0 miles16.1 km 29.91 in1013 hPa 0.00 in0.00 mm --
09:35 09:35 Sunny Sunny 54°F12°C 46°F8°C 77% SSW 13 mphSSW 20 kph 10.0 miles16.1 km 29.91 in1013 hPa 0.00 in0.00 mm --
09:15 09:15 Sunny Sunny 50°F10°C 46°F8°C 88% S 13 mphS 20 kph 10.0 miles16.1 km 29.91 in1013 hPa 0.00 in0.00 mm --
08:55 08:55 Sunny Sunny 48°F9°C 46°F8°C 94% S 10 mphS 17 kph 10.0 miles16.1 km 29.91 in1013 hPa 0.00 in0.00 mm --
08:40 08:40 Sunny Sunny 48°F9°C 45°F7°C 87% S 9 mphS 15 kph 10.0 miles16.1 km 29.91 in1013 hPa 0.00 in0.00 mm --
08:15 08:15 Sunny Sunny 48°F9°C 45°F7°C 87% S 10 mphS 17 kph 10.0 miles16.1 km 29.91 in1013 hPa 0.00 in0.00 mm --
07:55 07:55 Sunny Sunny 46°F8°C 45°F7°C 93% S 9 mphS 15 kph 10.0 miles16.1 km 29.91 in1013 hPa 0.00 in0.00 mm --
07:35 07:35 Clear Clear 46°F8°C 45°F7°C 93% S 8 mphS 13 kph 10.0 miles16.1 km 29.91 in1013 hPa 0.00 in0.00 mm --
07:15 07:15 Clear Clear 46°F8°C 45°F7°C 93% S 5 mphS 7 kph 10.0 miles16.1 km 29.94 in1014 hPa 0.00 in0.00 mm --
06:55 06:55 Clear Clear 46°F8°C 45°F7°C 93% S 6 mphS 9 kph 10.0 miles16.1 km 29.91 in1013 hPa 0.00 in0.00 mm --
06:35 06:35 Clear Clear 46°F8°C 45°F7°C 93% S 8 mphS 13 kph 10.0 miles16.1 km 29.91 in1013 hPa 0.00 in0.00 mm --
06:15 06:15 Clear Clear 46°F8°C 45°F7°C 93% CalmCalm 10.0 miles16.1 km 29.94 in1014 hPa 0.00 in0.00 mm --
05:55 05:55 Clear Clear 48°F9°C 45°F7°C 87% S 7 mphS 11 kph 10.0 miles16.1 km 29.91 in1013 hPa 0.00 in0.00 mm --
05:35 05:35 Clear Clear 48°F9°C 45°F7°C 87% S 7 mphS 11 kph 10.0 miles16.1 km 29.91 in1013 hPa 0.00 in0.00 mm --
05:10 05:10 Clear Clear 48°F9°C 45°F7°C 87% SSW 8 mphSSW 13 kph 10.0 miles16.1 km 29.91 in1013 hPa 0.00 in0.00 mm --
04:55 04:55 Clear Clear 48°F9°C 46°F8°C 94% S 9 mphS 15 kph 10.0 miles16.1 km 29.91 in1013 hPa 0.00 in0.00 mm --
04:40 04:40 Clear Clear 48°F9°C 46°F8°C 94% S 10 mphS 17 kph 10.0 miles16.1 km 29.91 in1013 hPa 0.00 in0.00 mm --
04:15 04:15 Clear Clear 48°F9°C 46°F8°C 94% S 10 mphS 17 kph 10.0 miles16.1 km 29.91 in1013 hPa 0.00 in0.00 mm --
03:55 03:55 Clear Clear 48°F9°C 46°F8°C 94% S 10 mphS 17 kph 10.0 miles16.1 km 29.94 in1014 hPa 0.00 in0.00 mm --
03:35 03:35 Clear Clear 50°F10°C 46°F8°C 88% S 9 mphS 15 kph 10.0 miles16.1 km 29.94 in1014 hPa 0.00 in0.00 mm --
03:15 03:15 Clear Clear 50°F10°C 46°F8°C 88% S 8 mphS 13 kph 10.0 miles16.1 km 29.94 in1014 hPa 0.00 in0.00 mm --
02:55 02:55 Clear Clear 50°F10°C 46°F8°C 88% S 9 mphS 15 kph 10.0 miles16.1 km 29.94 in1014 hPa 0.00 in0.00 mm --
02:35 02:35 Clear Clear 52°F11°C 46°F8°C 82% S 10 mphS 17 kph 10.0 miles16.1 km 29.94 in1014 hPa 0.00 in0.00 mm --
02:15 02:15 Clear Clear 54°F12°C 46°F8°C 77% S 9 mphS 15 kph 10.0 miles16.1 km 29.94 in1014 hPa 0.00 in0.00 mm --
01:55 01:55 Clear Clear 52°F11°C 46°F8°C 82% S 9 mphS 15 kph 10.0 miles16.1 km 29.94 in1014 hPa 0.00 in0.00 mm --
01:35 01:35 Clear Clear 52°F11°C 46°F8°C 82% S 9 mphS 15 kph 10.0 miles16.1 km 29.94 in1014 hPa 0.00 in0.00 mm --
01:15 01:15 Clear Clear 54°F12°C 46°F8°C 77% S 8 mphS 13 kph 10.0 miles16.1 km 29.94 in1014 hPa 0.00 in0.00 mm --
00:55 00:55 Clear Clear 54°F12°C 46°F8°C 77% S 9 mphS 15 kph 10.0 miles16.1 km 29.94 in1014 hPa 0.00 in0.00 mm --
00:35 00:35 Clear Clear 54°F12°C 46°F8°C 77% S 9 mphS 15 kph 10.0 miles16.1 km 29.97 in1015 hPa 0.00 in0.00 mm --
00:15 00:15 Clear Clear 54°F12°C 46°F8°C 77% S 9 mphS 15 kph 10.0 miles16.1 km 29.97 in1015 hPa 0.00 in0.00 mm --